Location: Lombard
(41.8800°N, 88.0080°W)
Time: 13:30:56
(UTC-05:00)

HuskySat-1 - Visible Passes

Search period start: 17 May 2022 00:00
Search period end: 27 May 2022 00:00
Orbit: 422 x 434 km, 51.6° (Epoch: 17 May)

Date Brightness Start Highest point End Pass type
(mag) Time Alt. Az. Time Alt. Az. Time Alt. Az.
17 May ? 03:02:18 31° NW 03:02:46 32° NNW 03:05:53 10° NE visible
17 May ? 04:38:19 10° NW 04:40:32 16° N 04:42:44 10° NE visible
18 May ? 02:18:57 33° NNE 02:18:57 33° NNE 02:21:15 10° NE visible
18 May ? 03:53:15 10° NW 03:55:35 17° N 03:57:57 10° NE visible
19 May ? 01:35:30 18° NE 01:35:30 18° NE 01:36:31 10° NE visible
19 May ? 03:08:36 13° NW 03:10:37 19° NNW 03:13:10 10° NE visible
19 May ? 04:46:15 10° NW 04:48:33 17° N 04:50:49 10° NE visible
20 May ? 02:25:02 22° NNW 02:25:34 23° NNW 02:28:21 10° NE visible
20 May ? 04:01:17 10° NW 04:03:27 16° N 04:05:38 10° NE visible
21 May ? 01:41:20 25° N 01:41:20 25° N 01:43:30 10° NE visible
21 May ? 03:16:08 10° NW 03:18:18 16° N 03:20:28 10° NE visible
22 May ? 00:57:31 18° NE 00:57:31 18° NE 00:58:36 10° NE visible
22 May ? 02:30:49 10° NW 02:33:04 16° N 02:35:20 10° NE visible
22 May ? 04:08:26 10° NW 04:11:00 19° NNE 04:13:33 10° ENE visible
23 May ? 00:13:30 11° NE 00:13:30 11° NE 00:13:36 10° NE visible
23 May ? 01:46:33 15° NW 01:47:48 18° NNW 01:50:14 10° NE visible
23 May ? 03:23:22 10° NW 03:25:43 17° N 03:28:04 10° NE visible
24 May ? 01:02:15 21° NNW 01:02:27 21° NNW 01:05:08 10° NE visible
24 May ? 02:38:09 10° NW 02:40:21 16° N 02:42:34 10° NE visible
24 May ? 04:14:58 10° NW 04:18:04 32° NNE 04:21:11 10° E visible
25 May ? 00:17:20 25° NNW 00:17:20 25° NNW 00:20:00 10° NE visible
25 May ? 01:52:45 10° NW 01:54:54 16° N 01:57:03 10° NE visible
25 May ? 03:29:50 10° NW 03:32:44 25° NNE 03:35:37 10° ENE visible
25 May ? 21:51:34 10° SSW 21:54:42 37° SE 21:57:52 10° ENE visible
25 May ? 23:28:34 10° W 23:31:41 33° NNW 23:34:48 10° NE visible
26 May ? 01:07:11 10° NW 01:09:24 16° N 01:11:36 10° NE visible
26 May ? 02:44:37 10° NW 02:47:16 21° NNE 02:49:56 10° ENE visible
26 May ? 04:21:14 10° NW 04:24:38 82° NE 04:28:01 10° ESE visible
26 May ? 21:06:44 10° S 21:09:28 23° SE 21:12:14 10° E visible
26 May ? 22:42:58 10° WSW 22:46:15 46° NNW 22:49:32 10° NE visible
